CAPE
0 0 0 11 35 70 123 50 14 10 0 0 49 628 722 747 785 758 674 806 768 872 1036 1015 1157 1250 1499 2292 2878 3339 3726 4429 3428 3056 3331 2145 2387 3202 2973 2519 2777 2128 2016 2465
0 0 0 5 54 0 14 3 19 0 0 0 24 113 439 705 462 937 717 688 826 867 974 1347 1285 1243 1394 2224 3234 3761 4127 4837 3855 3615 3644 3059 3230 2547 2541 2434 2437 3008 2710 2645
0 0 0 49 11 0 0 10 3 16 0 0 11 1 740 495 342 380 916 766 573 831 894 1114 1179 1514 1129 2157 3105 4050 4506 4751 4591 4300 4152 3887 3725 3208 3324 3567 2709 2695 3228 2971
0 0 34 77 0 0 6 23 3 0 0 1 3 10 73 205 117 288 319 835 482 831 1050 888 1100 733 624 1616 2411 4280 4758 4980 4841 5086 4480 3957 3924 3578 3545 3471 3378 3216 3055 3202
0 0 52 50 0 26 26 7 0 0 0 0 9 51 437 557 47 256 484 293 367 23 1374 802 385 551 675 1305 1563 3307 4930 5117 4795 4854 4879 4571 3848 3664 2750 2735 2958 2725 2682 3197
0 0 35 38 27 26 3 0 0 0 0 5 32 70 565 68 0 445 986 631 398 556 780 413 629 650 1226 1544 2024 2957 4493 4784 4621 4205 4752 4689 4375 4117 3333 2669 2648 3254 2614 2654
0 0 17 63 25 20 0 0 2 16 97 89 67 54 249 54 172 217 1071 804 548 852 0 7 857 1209 2094 2220 2040 3502 4420 4677 4615 4277 4344 4187 3822 3845 3491 3300 2569 2544 3054 2718
0 0 7 60 24 108 3 0 13 101 186 79 5 480 333 278 162 493 1186 1019 880 1670 1085 1219 1607 1692 2702 2629 2948 3679 4526 4745 4384 3921 3773 4378 4260 3645 3781 3134 2955 2231 2842 2428
0 0 0 26 0 16 45 102 34 34 87 95 167 138 168 254 519 942 1278 1409 1495 1870 1944 2046 2106 2276 2499 2294 2699 3365 4405 4677 4264 4280 4183 3759 3526 3761 3514 3513 3674 2741 3387 2861
0 8 4 38 0 0 31 74 82 54 58 29 449 626 505 533 897 1192 1582 1766 1921 2118 2055 1844 1967 1945 1556 1242 1702 2520 3254 3651 2996 2616 3264 3003 2836 2718 3015 3668 3933 3719 3648 3799
0 6 33 119 7 86 124 6 35 52 56 92 25 168 332 288 234 1085 1840 2082 2316 2126 1748 1447 1364 1497 1741 1497 1744 1774 2363 2321 2632 2298 2567 2369 2141 2340 2971 3276 3657 3783 4055 4461
0 2 92 150 30 30 11 0 14 15 48 265 24 192 117 291 67 0 125 2034 1787 1833 1341 1217 1498 1921 2127 2383 2430 1897 2147 2037 1476 1587 1967 1801 2389 2354 2539 2791 2900 3302 3482 3709
0 21 103 114 86 32 7 20 46 20 24 264 150 466 4 154 462 688 1639 2215 1857 2537 1959 966 1336 1347 1780 1576 1406 1033 844 677 1000 924 677 899 1191 1142 1018 1105 1219 1790 2302 2469
10 4 233 82 172 103 36 33 54 0 153 6 233 163 0 155 945 1380 1719 1761 1936 1918 1498 1518 1262 1499 1173 1115 1132 864 446 517 258 577 758 978 840 774 709 771 957 1083 1416 1739
0 143 220 24 177 32 45 16 12 73 26 52 84 0 7 304 1163 1526 1813 2212 1524 1392 1181 949 947 654 385 865 543 663 409 392 446 506 411 628 600 428 344 240 139 257 348 494
0 258 190 97 106 53 16 1 3 51 0 57 571 92 780 1456 1522 1550 2145 1751 1351 995 709 466 279 270 204 46 190 461 290 238 487 419 102 0 0 1 13 17 13 0 0 7
2 83 277 194 38 112 37 8 7 132 53 49 441 1410 1206 1251 1407 1500 1372 1224 1000 727 543 344 187 89 51 3 298 221 234 169 67 14 17 17 26 14 15 17 17 13 3 1
98 467 245 215 233 69 150 123 48 31 9 0 57 632 874 1272 1330 1271 1165 875 598 430 271 146 72 27 13 11 0 17 2 85 29 6 9 25 28 37 38 25 24 21 20 20
27 270 369 250 151 164 296 159 80 93 204 98 430 628 966 965 876 800 718 574 355 210 114 35 3 0 44 0 1 17 5 1 11 12 24 28 14 11 16 14 29 38 36 29
80 149 235 188 363 108 165 239 85 37 257 134 434 524 671 685 610 668 380 230 161 66 28 0 0 0 1 0 0 0 7 23 13 23 9 10 19 38 37 31 17 24 23 13
221 421 145 238 212 169 118 7 125 296 565 262 221 298 434 618 1054 555 258 153 69 8 0 0 0 0 0 0 0 0 24 7 8 5 6 16 19 13 4 12 16 13 13 10
583 336 366 539 421 357 144 217 331 916 432 137 132 257 949 773 530 368 242 100 6 0 0 0 0 0 0 0 0 10 7 8 2 4 3 2 6 21 15 15 10 9 12 8
348 456 964 896 782 325 106 707 305 261 426 251 334 526 811 548 404 282 152 26 0 0 0 0 0 0 0 0 2 11 22 10 7 12 30 26 26 11 6 12 12 7 7 12
867 703 551 763 112 302 465 750 375 398 333 363 310 498 459 375 229 85 7 0 0 0 0 0 0 0 0 0 5 44 15 8 13 8 33 31 29 22 26 5 9 2 12 5
508 1138 1639 914 1115 774 512 372 379 339 310 293 299 249 262 161 66 15 0 0 0 0 0 0 0 0 0 0 8 1 20 19 16 25 28 11 5 19 29 15 9 9 13 0
154 646 678 1100 1375 1017 1065 470 310 279 256 236 194 97 33 17 0 0 0 0 0 0 0 0 0 0 0 0 2 5 16 27 30 28 0 0 0 3 13 10 11 2 0 0
CIN
0 0 0 -1 -10 -26 -1 -2 -2 -2 -1 0 -49 -3 -4 -20 -2 -19 -10 -12 -5 0 -2 -12 -2 -3 -8 -19 -27 -29 -3 -8 -12 -8 -14 -81 -28 -11 -14 -16 -5 -20 -11 -1
0 0 0 -8 -4 0 -9 -3 -2 -1 0 0 -38 -11 -14 -8 -3 -8 -12 -10 -3 -1 -2 -8 -13 -2 -1 -5 -28 -24 -13 -9 -13 -3 -5 -37 -47 -21 -22 -28 -38 -8 -6 -2
0 0 0 -14 -16 0 0 -9 -34 -11 0 0 -1 -1 -6 -4 -6 -10 -5 -14 -5 -1 -9 -13 -27 -23 -22 -3 -6 -20 -20 -14 -12 -6 -11 -23 -22 -27 -9 -10 -26 -30 -4 -2
0 0 -4 -18 -2 0 -4 -9 -1 -1 0 -1 -16 -6 -11 -9 -10 -10 -6 -4 -5 -15 -15 -21 -57 -74 -63 -8 -6 -18 -19 -8 -4 -2 -2 -22 -10 -13 -5 -4 -32 -26 -23 -5
0 0 -9 -30 -1 -1 -25 -58 0 0 0 0 -46 -7 -108 -161 -414 -280 -3 -12 -4 -4 -28 -61 -88 -60 -63 -38 -38 -3 -14 -4 -2 -6 -4 -4 -7 -21 -33 -28 -31 -39 -30 -11
0 0 -10 -25 -1 -3 -1 0 0 0 0 -10 -4 -4 -42 -497 0 -191 -20 -2 -13 -8 -63 -122 -96 -67 -24 -20 -4 -10 -22 -5 -1 -5 -1 -1 -2 -2 -22 -39 -44 -22 -46 -41
0 0 -21 -13 -13 -23 0 0 0 -7 -20 -2 -16 -12 -78 -202 -330 -340 -40 -21 -14 -425 0 -200 -20 -17 -2 -1 -1 -16 -16 0 -1 -6 0 0 -2 -5 -10 -9 -45 -34 -24 -31
0 0 -20 -7 -31 -4 -4 0 -2 -7 -1 -22 -26 -15 -72 -92 -175 -53 -11 -18 -13 -53 -239 -95 -2 -1 -6 -3 -7 -22 -2 -1 -3 -2 -1 0 -1 -5 -11 -12 -10 -13 -14 -42
0 0 -1 -5 0 -22 -18 -1 -1 -33 -1 -8 -27 -68 -51 -140 -16 -7 -9 -20 -19 -17 -14 -2 -1 -1 -8 -21 -14 -13 -1 -1 0 -2 -2 -1 -4 -1 -1 -1 -1 -8 -5 -11
0 -1 -3 -34 0 0 -22 -7 -3 -1 -1 -2 -38 -66 -98 -259 -123 -38 -1 -4 -4 -2 -19 -23 -31 -38 -41 -83 -66 -22 -9 -5 -6 -2 -1 -3 -1 -1 -4 -3 -2 -5 -13 -13
0 -2 -14 -3 -44 -14 -3 -53 -11 -2 -1 -9 -191 -41 -121 -246 -247 -92 -10 -1 -2 -6 -46 -67 -55 -38 -5 -15 -7 -7 -1 -4 -2 -6 -1 -2 -6 -2 -1 -3 -2 -10 -10 -5
0 -1 -2 -1 -28 -24 -49 -1 -7 -5 -3 -33 -30 -27 -252 -249 -543 -9 -507 -4 -2 -1 -8 -10 -20 -1 -4 -5 -2 -8 -4 -11 -24 -29 -15 -22 -23 -37 -18 -15 -5 -6 -3 -3
0 -29 -1 -2 -1 -16 -71 -22 -10 -4 -35 -36 -30 -100 -510 -227 -97 -180 -3 -10 -181 -40 -79 -95 -58 -101 -33 -70 -78 -124 -144 -130 -44 -84 -120 -78 -46 -59 -71 -52 -56 -25 -18 -16
-63 -20 -9 -15 -3 -8 -13 -2 -26 -2 -137 -153 -75 -390 0 -328 -3 -2 -8 -12 -91 -82 -116 -123 -160 -64 -121 -130 -119 -175 -294 -247 -213 -176 -80 -23 -50 -27 -20 -13 -7 -8 -5 -1
0 -34 -47 -336 -68 -20 -89 -113 -144 -40 -7 -10 -126 0 -374 -322 -10 -2 -2 -21 -39 -62 -75 -136 -126 -183 -228 -123 -165 -162 -215 -231 -173 -136 -94 -62 -67 -75 -69 -78 -116 -62 -27 -9
0 -1 -16 -159 -45 -17 -79 -162 -81 -30 -1 -6 -89 -221 -127 -7 -21 -16 -4 -3 -16 -74 -128 -169 -221 -201 -182 -233 -198 -147 -212 -188 -99 -91 -184 0 0 0 0 0 0 0 0 0
-63 -27 0 -1 -7 -34 -16 -31 -35 -3 -33 -69 -10 -8 -15 -27 -7 -6 -28 -20 -39 -91 -116 -152 -207 -240 -267 -317 -117 -198 -155 -194 -215 -199 -7 -3 -1 0 0 -1 -1 -1 0 -1
-54 -4 -1 0 -1 -6 -2 -2 -17 -10 -40 0 -48 -54 -44 -39 -27 -26 -39 -60 -106 -147 -205 -266 -294 -343 -374 -372 0 -113 0 -229 -34 -10 -1 0 0 0 0 0 -1 -2 -1 -2
-41 0 -1 -1 -5 -57 -14 -18 -23 -15 -15 -53 -45 -62 -59 -62 -60 -48 -82 -97 -183 -250 -295 -351 -423 0 -326 0 -1 0 -9 -1 0 0 0 0 -4 -5 -5 -1 -1 0 0 0
-1 -4 -1 -5 -39 -134 -190 -110 -17 -61 -16 -46 -58 -56 -54 -63 -43 -79 -207 -261 -286 -351 -405 0 0 0 0 -1 0 0 0 0 0 0 -1 -2 -2 0 0 0 -1 -1 0 -1
-3 -16 -7 -1 -3 -94 -108 -104 -64 -27 -21 -43 -48 -66 -54 -46 -27 -92 -232 -289 -354 -450 0 0 0 0 0 0 0 0 -1 0 -1 -1 -1 -1 -1 -2 -2 -2 -1 -1 -1 0
-1 -8 -5 -22 -119 -92 -229 -89 -42 -24 -31 -52 -64 -41 -38 -81 -98 -152 -227 -322 -439 0 0 0 0 0 0 0 0 0 0 0 -1 -1 0 0 -1 -1 0 -2 -2 -3 -1 0
-11 -85 -26 -63 -158 -286 -247 -45 -5 -12 -34 -44 -37 -29 -47 -65 -121 -197 -267 -384 0 0 0 0 0 0 0 0 0 0 -1 -1 0 -2 0 -1 -1 0 -2 -1 -1 -1 -1 0
-35 -61 -137 -109 -294 -195 -227 -59 -46 -40 -64 -57 -61 -47 -60 -96 -185 -275 -286 0 0 0 0 0 0 0 0 0 0 0 -4 0 0 0 0 -1 0 -3 0 0 0 -1 0 0
-167 -28 -14 -27 -42 -64 -40 -60 -82 -94 -81 -77 -83 -89 -93 -171 -251 -330 0 0 0 0 0 0 0 0 0 0 0 0 0 0 0 0 0 -1 0 0 0 -2 -2 -1 -2 0
-409 -25 -2 -2 -30 -17 -45 -78 -104 -84 -87 -106 -158 -222 -286 -243 0 0 0 0 0 0 0 0 0 0 0 0 0 0 0 0 0 0 -1 0 0 0 0 -1 -2 -2 0 0
Wind_Speed
17 13 16 19 13 12 17 18 11 10 10 3 6 20 19 17 18 16 16 16 16 16 15 14 11 14 11 16 14 12 7 8 7 6 6 4 5 5 4 5 9 8 7 8
17 17 22 7 6 2 12 9 4 7 4 7 6 11 17 19 15 20 15 17 17 18 16 16 12 12 11 13 15 14 11 9 7 6 6 5 4 6 6 7 7 6 9 8
20 21 21 3 9 8 10 9 2 7 8 10 8 11 21 21 16 12 20 19 19 20 19 17 12 9 6 7 10 12 11 11 9 8 4 4 4 2 4 4 5 7 8 9
19 25 18 13 14 13 10 12 7 2 10 11 10 11 8 14 6 8 12 21 20 18 20 16 10 12 10 6 6 7 10 9 9 8 7 6 4 4 5 6 6 6 9 9
19 20 21 13 13 10 3 6 12 6 10 16 15 5 5 23 24 28 12 16 14 10 22 19 12 12 13 10 9 7 9 7 3 8 6 4 7 6 7 7 5 3 4 6
21 19 15 15 14 6 8 6 11 11 12 13 5 1 12 7 18 14 16 8 11 16 17 16 13 12 9 11 9 12 10 6 5 3 5 5 6 6 5 5 4 4 5 5
18 22 17 11 16 4 11 13 11 9 7 10 8 5 6 20 27 32 22 8 7 29 31 19 17 15 9 5 7 15 11 6 4 3 3 3 4 4 6 5 6 7 4 5
14 18 22 16 16 12 14 17 10 7 8 8 15 10 6 12 25 25 11 7 2 22 28 23 12 9 9 10 11 13 9 8 6 3 2 3 4 4 4 4 5 5 5 3
16 18 22 14 11 16 12 17 17 14 20 13 9 8 12 14 9 12 12 12 9 13 13 12 11 13 13 9 12 10 9 7 5 6 2 2 2 4 4 5 5 5 5 6
20 12 19 17 18 21 18 10 12 8 7 8 9 11 7 18 16 5 11 13 14 15 15 13 15 10 10 12 10 10 9 6 3 3 3 1 2 3 2 4 5 4 5 5
24 18 15 20 20 20 11 9 14 17 6 1 2 1 8 21 9 7 8 13 15 12 13 12 12 11 10 10 9 9 7 4 3 7 3 2 2 5 3 5 4 5 6 6
24 14 13 26 19 17 16 19 18 9 9 7 6 1 10 14 21 29 35 14 14 10 16 16 15 15 12 10 9 8 11 10 10 11 10 11 9 10 11 10 9 7 5 3
20 18 11 9 16 13 18 14 17 6 9 7 3 6 20 29 20 25 16 19 12 17 18 13 18 17 12 11 10 10 11 10 11 9 11 11 10 11 12 13 12 12 10 10
18 20 12 8 13 9 26 15 16 12 6 8 7 7 10 28 6 9 17 15 16 13 16 12 13 12 10 8 7 8 6 5 7 9 9 9 9 10 10 11 12 13 13 12
16 5 6 14 17 10 8 7 13 24 7 12 19 14 15 22 9 10 12 19 18 13 13 12 8 7 3 5 3 2 6 8 7 7 8 10 12 12 12 12 12 13 13 12
18 10 16 22 28 6 17 12 16 25 5 8 24 20 23 7 10 10 14 12 14 12 12 9 6 7 4 1 4 6 7 7 8 9 9 10 10 10 10 11 12 11 12 12
19 14 10 12 18 16 10 19 29 6 6 7 10 16 13 11 11 11 10 11 13 9 9 6 5 6 4 6 9 9 8 9 8 8 8 8 9 10 10 10 10 11 13 14
19 17 9 8 15 11 9 9 5 9 9 7 8 11 12 13 12 11 11 12 11 9 7 4 5 5 7 10 11 8 8 7 7 7 8 8 9 10 11 12 11 11 11 11
21 17 9 5 4 5 7 6 6 5 12 8 13 11 14 12 14 11 11 12 10 8 6 4 5 5 8 8 7 7 8 7 8 9 9 10 9 9 10 10 9 10 10 10
23 17 12 4 6 4 4 10 15 7 11 9 13 10 11 12 7 11 11 10 9 8 8 5 4 8 8 8 8 6 6 9 10 11 9 8 8 9 10 10 10 9 10 11
17 5 11 11 6 7 15 9 10 7 8 7 8 9 10 6 10 15 12 10 8 7 9 3 6 8 9 8 6 6 8 10 9 8 8 9 9 8 9 9 8 9 9 11
14 15 16 4 7 8 5 10 3 5 7 8 7 9 18 16 15 13 11 9 9 7 5 8 8 7 8 8 6 6 9 8 9 9 9 9 9 7 8 9 9 8 7 9
8 4 2 6 6 8 3 8 5 7 8 6 9 13 15 15 13 12 10 9 8 5 8 7 6 7 7 7 6 7 8 7 9 9 7 6 7 8 8 9 9 9 9 7
7 10 8 11 7 14 15 4 5 10 9 11 10 12 12 13 12 10 8 8 8 8 7 6 6 7 7 6 6 6 7 7 8 8 9 8 8 7 7 8 8 8 8 9
3 13 14 13 21 15 11 11 12 13 12 13 12 10 11 12 10 11 10 9 8 6 6 6 6 6 7 6 7 9 8 5 7 7 6 7 8 10 9 8 6 7 7 5
6 8 6 8 17 8 13 13 14 14 14 13 13 12 10 12 10 12 10 8 7 6 6 5 5 6 7 7 7 7 7 7 8 7 7 6 6 6 7 7 7 7 4 5
Wind_Direction
224 237 238 244 294 180 229 209 193 130 128 252 225 158 170 186 180 170 177 168 182 186 176 161 186 173 152 159 163 172 187 165 159 176 179 184 225 201 214 235 226 216 216 224
232 224 249 321 265 261 268 239 76 104 165 221 205 203 174 179 195 176 185 172 191 180 164 155 190 184 170 165 164 169 177 163 186 195 197 192 177 225 216 209 227 219 212 226
226 225 241 203 239 249 237 264 242 160 188 256 239 225 163 176 177 199 178 184 186 178 165 163 181 165 194 192 157 163 172 172 185 209 217 166 177 240 247 222 224 223 220 209
221 245 231 204 256 210 243 328 296 228 217 215 235 282 159 140 178 204 207 193 192 173 158 145 163 178 208 165 157 157 157 165 183 195 232 178 231 237 239 239 209 206 203 210
229 232 249 202 216 261 67 250 271 229 279 277 198 242 138 78 49 297 232 217 226 156 162 137 164 169 186 158 177 145 135 138 202 183 225 253 220 231 236 244 268 220 213 225
244 231 237 215 239 204 273 244 240 247 249 259 321 259 112 139 162 279 282 218 247 193 124 105 140 163 173 191 151 126 109 117 142 209 209 226 276 284 291 308 309 259 228 222
237 249 219 236 226 185 246 246 232 222 308 267 230 238 137 161 157 203 243 218 236 102 116 219 190 174 176 125 129 114 118 134 149 180 229 249 268 276 302 300 256 263 208 204
213 226 223 187 226 212 217 235 251 279 227 323 289 61 197 201 197 187 166 161 120 143 155 189 166 171 112 103 87 93 107 131 128 104 26 9 331 301 237 251 353 326 329 285
209 228 222 187 215 247 248 261 268 269 235 230 176 112 141 337 156 146 147 131 126 88 102 116 132 117 101 110 97 103 96 91 106 122 130 262 251 249 294 320 319 288 322 338
253 210 232 184 199 223 237 276 277 276 271 285 75 95 111 37 324 326 148 136 128 109 96 90 89 110 124 105 106 97 88 81 78 322 179 209 227 204 241 247 245 253 264 276
247 254 181 228 206 223 210 243 256 270 278 45 64 173 162 185 193 343 238 123 110 119 111 118 101 96 106 119 129 117 100 74 65 53 29 280 287 271 231 256 261 236 249 247
235 250 228 203 202 212 240 219 235 245 249 68 12 131 248 210 163 175 255 133 141 133 142 146 124 99 78 57 57 60 40 31 15 6 2 13 7 5 357 344 340 310 272 312
229 243 224 210 197 197 225 230 248 294 50 34 53 5 333 325 157 182 111 95 78 80 78 53 65 65 64 57 43 28 50 10 4 359 357 355 354 359 348 347 345 340 343 341
237 262 173 186 231 305 211 226 321 181 93 299 73 171 139 274 51 98 108 106 102 93 88 74 43 64 51 45 35 24 27 36 8 15 348 334 4 350 342 335 334 341 342 337
237 189 72 10 307 71 62 64 333 315 83 197 123 113 245 248 152 121 114 118 103 98 97 78 110 91 120 150 160 89 26 30 15 358 335 10 12 2 356 355 345 344 337 333
225 187 146 187 240 140 122 128 264 274 18 35 132 157 199 199 118 128 112 125 110 106 97 98 133 175 149 77 59 47 23 14 15 13 14 8 360 344 339 335 332 331 329 332
220 226 214 186 185 168 202 182 208 129 68 57 71 114 126 110 106 105 109 117 104 115 123 113 83 60 30 18 60 32 16 27 16 6 16 350 350 337 326 322 326 335 336 333
211 224 236 222 207 191 74 71 154 78 74 54 102 107 108 113 114 118 121 109 112 98 94 83 50 15 13 34 29 15 11 35 28 10 356 348 337 337 346 344 341 340 332 334
206 217 229 171 226 19 50 68 146 136 112 109 106 110 109 120 111 107 99 104 102 105 102 55 49 39 57 38 28 18 35 15 15 359 352 350 349 330 319 313 329 335 332 322
212 210 229 147 128 138 346 303 30 2 92 96 111 128 135 142 201 134 125 121 106 81 76 32 38 64 64 46 38 15 25 33 5 354 343 319 318 329 336 338 335 333 331 326
218 188 244 234 197 76 168 223 284 287 105 100 121 136 148 123 84 122 113 101 94 72 74 32 65 61 67 48 24 15 44 21 355 339 339 349 338 321 329 327 330 333 336 326
206 176 229 161 109 115 326 322 313 103 138 120 114 123 104 117 122 118 106 100 79 64 59 58 68 59 52 44 17 21 44 14 1 357 355 349 341 336 349 340 330 336 336 329
186 113 67 59 129 165 250 237 126 152 115 124 130 124 132 134 127 132 121 100 84 78 64 61 51 66 49 36 19 18 52 25 352 338 335 5 358 355 1 349 352 350 348 350
86 73 110 112 168 169 169 188 128 121 123 109 113 115 138 128 122 119 108 104 98 78 67 52 42 43 42 26 12 27 58 9 334 349 338 10 353 339 25 5 8 1 9 353
22 141 117 112 161 163 140 153 121 114 118 116 115 127 118 119 111 114 107 98 96 85 73 66 45 43 35 22 21 18 0 6 338 333 9 9 3 347 8 9 10 10 16 13
41 288 134 107 153 144 144 131 132 130 125 122 111 102 95 107 110 105 110 109 99 87 77 57 54 46 34 20 24 16 355 348 336 343 20 349 3 5 0 348 348 350 345 350